Погода в Гришкине

Россия / Томская область     58°02′19″N   82°39′15″E
темп.,
°C
ветер,
м/с
пор.,
м/с
влажн.,
%
обл.,
%
осадки,
мм/ч
давл.,
гПа
погр.,
м
17 апреля, сб
сб1701:00−5с487997 0.1 1021742
04:00−6с367883 0.1 1023805
07:00−7с247472 0.1 1025646
10:00−4сз12555 0.0 1025758
13:000з24415 0.0 10241136
16:00+2зюз46375 0.0 10221633
19:00+2юз47465 0.0 10211495
22:00−1юз51267100 0.0 1019566
18 апреля, вс
вс1801:00−1ююз51272100 0.0 1017653
04:00−1ююз61474100 0.0 1012797
07:00−1ююз71593100 0.8 10081011
10:00+2зюз61082100 0.6 10071040
13:00+2юз4780100 0.9 1006923
16:00+1с3490100 0.9 1005410
19:00−2ссв61192100 2.7 1004720
22:00−4ссв71394100 2.7 1004883
19 апреля, пн
пн1901:00−7с81492100 6.3 10061095
04:00−10ссз81478100 0.8 1010996
07:00−12ссз7137663 0.8 1015902
10:00−10сз7106697 0.0 10191046
13:00−7сз6955100 0.0 10221430
16:00−6сз684997 0.0 10241653
19:00−6сз495796 0.0 10251670
22:00−8сз3873100 0.1 1026696
20 апреля, вт
вт2001:00−9сз387840 0.1 1027385
04:00−9зсз3790100 0.1 1027652
07:00−10з389123 0.1 1027393
10:00−6зсз4565100 0.0 10271189
13:00−4з3552100 0.1 10251778
16:00−2з3548100 0.1 10231752
19:00−2зюз3566100 0.2 10231133
22:00−5ююз268697 0.1 1022196
21 апреля, ср
ср2101:00−5ю3790100 0.1 1020328
04:00−5ююв3795100 0.1 1019342
07:00−5юв369390 0.3 1020318
10:00−2вюв3474100 0.0 1022993
13:000в3463100 0.1 10241471
16:00+1св455699 0.2 10261455
19:000ссв4660100 0.3 10291166
22:00−4с278236 0.0 1032144